Regional Weather Roundup
Issued by NWS State College, PA

Home | Current Version | Previous Version | Text Only | Print | Product List | Glossary On
Versions: 1 2 3 4 5 6 7 8 9 10 11 12 13 14 15 16 17 18 19 20 21 22 23 24 25 26 27 28 29 30 31 32 33 34 35 36 37 38 39 40 41 42 43 44 45 46 47 48 49 50
000
ASUS41 KCTP 020803
RWRCTP

REGIONAL WEATHER ROUNDUP
NATIONAL WEATHER SERVICE STATE COLLEGE PA
400 AM EDT THU JUL 02 2015

Note: "fair" indicates few or no clouds below 12,000 feet with no
significant weather and/or obstructions to visibility.

* = STATION THAT DOES NOT REPORT PRECIPITATION /E.G. RAIN...SNOW...ETC/
    THUNDER OR FOG.

PAZ002>004-007>009-013>016-020>023-029>032-020900-
WESTERN PENNSYLVANIA

CITY           SKY/WX    TMP DP  RH WIND       PRES   REMARKS
ERIE           CLOUDY    61  56  83 CALM      29.93F
MEADVILLE      CLOUDY    57  54  89 CALM      29.94F FOG
FRANKLIN*      CLOUDY    55  52  88 CALM      29.95F VSB 3/4
NEW CASTLE     FAIR      59  59 100 CALM      29.94F
BEAVER COUNTY  NOT AVBL
BUTLER*        PTCLDY    57  55  94 CALM      29.94S
PITTSBURGH INT CLOUDY    61  58  90 CALM      29.92S
PITTSBURGH     PTCLDY    61  56  83 SE3       29.91F
INDIANA*       CLOUDY    59  59 100 CALM      29.97S FOG
LATROBE        NOT AVBL
WASHINGTON CO* NOT AVBL
$$

PAZ004>006-010>012-017>019-024>028-033>037-041-042-045-046-049>053-020900-
CENTRAL PENNSYLVANIA

CITY           SKY/WX    TMP DP  RH WIND       PRES   REMARKS
BRADFORD       MOCLDY    50  48  93 CALM      29.95S FOG
DUBOIS         MOCLDY    58  55  90 E5        29.93F
CLEARFIELD     MOCLDY    57  54  89 N6        29.94F
JOHNSTOWN      CLEAR     59  56  89 SW3       29.95F
ALTOONA        MOCLDY    58  56  93 CALM      29.94F
STATE COLLEGE  NOT AVBL
WILLIAMSPORT   PTCLDY    59  57  93 CALM      29.90F
SELINSGROVE    PTCLDY    60  58  92 NW3       29.92S FOG
FT INDIANTOWN  CLEAR     61  59  94 CALM      29.90R
CAPITAL CITY   PTCLDY    63  59  87 CALM      29.89F
HARRISBURG     PTCLDY    65  61  87 CALM      29.89S
YORK           PTCLDY    59  57  93 CALM      29.90F
$$

PAZ038>040-043-044-047-048-054-055-060>062-067>071-020900-
EASTERN PENNSYLVANIA

CITY           SKY/WX    TMP DP  RH WIND       PRES   REMARKS
SCRANTON       CLEAR     59  55  87 CALM      29.91F
MOUNT POCONO   CLEAR     54  52  93 CALM      29.93F
ALLENTOWN      CLEAR     61  58  90 CALM      29.89S FOG
QUAKERTOWN*    SUNNY     59  57  94 CALM      29.90S
READING        PTCLDY    63  59  87 CALM      29.88S
LANCASTER      PTCLDY    61  58  90 NW3       29.89S
COATESVILLE    NOT AVBL
POTTSTOWN      CLEAR     60  59  96 CALM      29.90S
BLUE BELL      NOT AVBL
DOYLESTOWN     CLEAR     60  59  96 CALM      29.88S
WILLOW GROVE   NOT AVBL
NORTH PHILA    CLEAR     67  58  72 CALM      29.89S
PHILADELPHIA   CLEAR     71  60  68 CALM      29.88F
$$



USA.gov is the U.S. government's official web portal to all federal, state and local government web resources and services.